Location: 10033 Water Well
(34.0865°N, 106.8959°W)
Time: 16:45:02
(UTC+00:00)

BREEZE M DEB (TANK) - Pass Details

Date: 13 January 2026
Orbit: 294 x 13749 km, 49.5° (Epoch: 9 February)

Event Time Altitude Azimuth Distance (km) Brightness Sun altitude
Rises 01:54:04 0° 314° (NW) 2,135 6.3 -19.4°
Reaches altitude 10° 01:55:26 10° 318° (NW) 1,476 5.4 -19.7°
Maximum altitude 01:58:13 65° 42° (NE) 696 3.0 -20.2°
Enters shadow 02:00:44 30° 115° (ESE) 1,575 4.7 -20.8°
Exits shadow 02:11:08 - 127° (SE) 6,211 7.8 -22.9°
Sets 02:12:00 0° 127° (SE) 6,563 7.9 -23.0°
